Powrót do katalogu

TITAN 34B DEB

LostHEO
NORAD 28524·DEBRIS·🇺🇸 United States

Wystrzelony Apr 24, 1981 z Vandenberg Space Force Base

Loading…

Następne Przeloty (najbliższe 24 godziny)

TLE

NieaktualneSource: Space-Track

Epoka: Aug 2, 2020, 03:36 UTC

1 28524U 81038F   20215.15024546  .00012200  10339-5  63881-3 0  9993
2 28524  63.0430  55.0546 6867242 264.6000  20.2771  2.85721484 11290

Śledź TITAN 34B DEB w czasie rzeczywistym z AllMySat

Download on the App Store